INTELSAT 36 (IS-36)

Last updated on Tue Sep 22 2026 00:03:14 GMT+0000 (Coordinated Universal Time)

1 41747U 16053A 26264.57391773 .00000000 00000+0 00000+0 0 9998 2 41747 0.0142 160.3171 0001765 193.8095 281.4427 1.00268870 36925
UTC large
Height (km)
Speed (km/s)
/
Latitude / Longitude
Inclination (degrees)
Orbital Period (minutes)
Azimuth
Elevation
Range (km)
Doppler Factor

Next 0 passes for location: London (51.5072 / 0.1276)

No passes found over London.
INTELSAT 36 (IS-36)